Regional Weather Roundup
Issued by NWS

Home | Current Version | Previous Version | Graphics & Text | Print | Product List | Glossary On
Versions: 1 2 3 4 5 6 7 8 9 10 11 12 13 14 15 16 17 18 19 20 21 22 23 24 25 26 27 28 29 30 31 32 33 34 35 36 37 38 39 40 41 42 43 44 45 46 47 48 49 50
000
ASUS43 KIND 290309
RWRIN

WEATHER ROUNDUP FOR INDIANA
NATIONAL WEATHER SERVICE INDIANAPOLIS IN
1100 PM EDT MON JUL 28 2014

NOTE: "FAIR" INDICATES FEW OR NO CLOUDS BELOW 12,000 FEET WITH NO
SIGNIFICANT WEATHER AND/OR OBSTRUCTIONS TO VISIBILITY.

* - STATION DOES NOT REPORT WEATHER SUCH AS PRECIPITATION OR FOG.

+ - STATION NOT QUALITY CONTROLLED BY THE NATIONAL WEATHER SERVICE.
    USE DATA WITH CAUTION...ESPECIALLY DEWPOINT AND RELATIVE
    HUMIDITY OBSERVATIONS.

INZ001>003-010>013-019-020-290400-
NORTHWEST INDIANA

CITY           SKY/WX    TMP DP  RH WIND       PRES   REMARKS
GARY /AIRPORT/ CLOUDY    61  57  87 CALM      30.09R
KNOX *+        CLEAR     53  47  79 CALM      30.07R
LA PORTE +     PTCLDY    56  49  76 N5        30.08R
MICHIGAN CITY+ MOCLDY    54  48  82 CALM      30.07S
MONTICELLO +   CLEAR     53  50  89 NW5       30.07R
RENSSELAER +   PTCLDY    54  54 100 CALM      30.09S
VALPARAISO     PTCLDY    56  50  80 W3        30.08R

$$

LMZ046-743>745-290400-
SOUTHERN LAKE MICHIGAN

STATION/POSITION TIME  TEMP WIND        PRES
                       AIR  DIR/SP/G
                 (UTC) (F)  (DEG/KT/KT) (MB)
MICHIGAN CITY    0300   64  350/ 12/ 14   N/A

$$

INZ004-005-014>016-021>024-290400-
NORTH CENTRAL INDIANA

CITY           SKY/WX    TMP DP  RH WIND       PRES   REMARKS
GOSHEN         CLEAR     54  49  83 NW5       30.05S
LOGANSPORT +   CLEAR     52  46  82 NW3       30.08R
PERU/GRISSOM   CLEAR     55  51  86 NW5       30.06R
ROCHESTER +    CLEAR     55  48  76 N6        30.07R
SOUTH BEND     CLOUDY    58  48  69 N7        30.06S
WARSAW +       CLEAR     52  48  87 NW6       30.06R

$$

INZ006>009-017-018-025>027-290400-
NORTHEAST INDIANA

CITY           SKY/WX    TMP DP  RH WIND       PRES   REMARKS
ANGOLA *+      CLEAR     55  52  88 N7        30.04R
AUBURN +       CLEAR     55  50  82 NW6       30.04R
FORT WAYNE     PTCLDY    56  50  80 NW7       30.04R
HUNTINGTON +   CLEAR     54  49  83 NW3       30.04S

$$

INZ028-029-035-036-043>045-051>053-290400-
WEST CENTRAL INDIANA

CITY           SKY/WX    TMP DP  RH WIND       PRES   REMARKS
GREENCASTLE +  CLEAR     55  46  71 NW3       30.08S
LAFAYETTE      CLEAR     54  49  83 CALM      30.08R
TERRE HAUTE    CLEAR     58  47  66 N3        30.08S

$$

INZ030>032-037>040-046>048-054>057-064-065-290400-
CENTRAL INDIANA

CITY           SKY/WX    TMP DP  RH WIND       PRES   REMARKS
CP ATTERBURY + CLEAR     57  46  67 NW6       30.05F
INDIANAPOLIS   CLEAR     59  46  62 N12       30.05R
-EAGLE CREEK   CLEAR     59  48  67 N10G18    30.05R
KOKOMO *+      CLEAR     54  46  76 N6        30.06S
MARION +       CLEAR     52  47  86 NW3       30.06R
MT COMFORT *+  CLEAR     55  52  88 NW10      30.06R
SHELBYVILLE    CLEAR     56  48  74 NW6       30.04S
ZIONSVILLE +   CLEAR     57  46  67 NW9       30.07R

$$

INZ033-034-041-042-049-050-058-059-290400-
EAST CENTRAL INDIANA

CITY           SKY/WX    TMP DP  RH WIND       PRES   REMARKS
MUNCIE         CLEAR     53  48  83 NW8       30.05R

$$

INZ060-061-067>069-081>083-085>088-290400-
SOUTHWEST INDIANA

CITY           SKY/WX    TMP DP  RH WIND       PRES   REMARKS
EVANSVILLE     CLEAR     67  53  61 NW8       30.07R
WASHINGTON +   PTCLDY    59  51  74 N6        30.08R

$$

INZ062-063-066-070>080-084-089>092-290400-
SOUTH CENTRAL AND SOUTHEAST INDIANA

CITY           SKY/WX    TMP DP  RH WIND       PRES   REMARKS
BEDFORD +      CLEAR     61  46  59 NW6       30.07
BLOOMINGTON    CLEAR     58  47  66 CALM      30.07R
NORTH VERNON + CLEAR     59  52  77 NW5       30.05R

$$




USA.gov is the U.S. government's official web portal to all federal, state and local government web resources and services.